Wind_Speed
4 4 4 4 4 4 4 3 3 4 4 3 4 4 3 3 3 4 4 4 5 5 5 5 4 4 5 5 5 6 6 6 6 6 6 6 6 6 6 7 7 7 8 9 9 9 9 9 9
4 4 4 4 4 4 3 3 3 3 3 3 3 4 3 4 4 4 4 5 5 5 5 6 5 5 5 6 6 7 7 7 7 7 7 7 6 6 7 8 8 8 9 9 9 10 10 10 10
5 4 4 4 4 4 3 3 2 3 2 3 3 3 4 4 5 5 5 6 6 6 6 6 6 7 6 6 6 6 7 7 7 7 8 8 7 7 7 8 9 9 9 9 9 10 10 11 11
5 5 5 5 4 4 4 4 3 2 2 3 3 3 4 5 5 5 6 6 7 6 6 6 7 7 7 6 7 6 7 7 7 7 8 8 8 7 8 8 9 9 9 9 9 10 10 10 10
6 5 6 6 5 5 4 4 3 3 3 3 4 4 4 5 5 5 6 6 7 7 7 7 7 7 7 7 6 7 7 7 7 8 8 8 8 9 9 9 9 9 9 9 9 10 10 11 11
7 7 7 7 6 5 5 5 4 4 4 4 4 4 5 5 5 5 6 5 6 6 7 6 6 7 7 7 7 8 8 8 8 8 9 9 8 8 9 9 9 9 10 10 11 11 11 11 11
8 8 8 8 7 7 6 5 5 5 5 5 5 5 5 5 5 6 5 5 5 6 6 6 6 6 7 7 8 8 8 8 8 9 9 9 9 9 9 9 10 10 11 11 11 11 11 11 12
9 9 9 9 8 9 8 6 5 6 6 5 5 5 5 5 5 5 5 5 5 5 5 6 6 6 7 7 7 7 7 8 8 9 9 9 10 10 9 9 10 10 10 11 11 10 10 11 11
9 9 9 8 8 8 7 7 6 6 6 6 5 5 5 5 5 5 5 4 4 4 5 5 5 6 6 6 6 7 7 8 8 9 9 9 10 10 10 10 9 10 11 11 11 10 10 12 12
8 9 8 7 7 7 7 7 7 6 6 6 6 6 5 5 5 4 4 4 4 4 4 5 5 5 6 6 6 7 7 8 8 9 9 9 10 10 10 10 11 11 11 12 12 12 13 13 12
7 8 8 7 7 7 7 8 8 8 7 6 5 5 5 5 5 4 5 5 5 5 5 5 5 5 6 6 6 7 8 8 8 9 9 10 10 11 11 11 12 12 12 12 12 12 12 13 13
7 7 7 7 7 7 8 8 8 8 7 7 7 7 6 6 6 6 6 5 5 5 6 6 6 6 6 7 7 7 8 8 9 9 10 10 11 11 12 12 12 12 12 12 12 11 11 12 12
7 7 7 7 6 6 6 8 8 7 7 8 8 7 7 6 6 6 7 6 6 6 6 6 6 6 7 7 8 8 8 9 10 10 11 11 11 11 12 12 12 12 12 12 12 12 11 11 12
7 7 8 7 6 6 6 6 7 7 7 8 8 7 7 7 7 7 7 7 7 7 7 7 7 7 8 8 8 8 9 9 10 10 11 11 12 12 12 12 13 12 12 12 12 13 12 12 12
6 7 7 7 7 6 6 7 7 7 7 8 8 8 7 7 7 7 7 8 8 8 8 8 8 8 8 8 9 9 9 10 10 10 11 11 12 12 12 12 12 12 12 12 13 12 12 12 12
7 7 8 7 7 7 7 7 6 7 7 7 8 8 8 8 8 8 8 8 8 8 8 8 8 8 9 9 9 10 11 10 11 11 11 12 11 11 11 11 11 11 11 11 12 12 12 11 11
9 8 8 8 8 8 8 7 7 7 7 7 8 8 8 8 8 9 9 8 9 9 9 9 9 9 9 10 10 11 12 12 12 12 12 12 12 11 11 11 11 11 11 11 11 10 11 11 10
10 9 9 8 8 8 9 8 8 7 8 8 8 8 8 9 9 9 10 9 9 9 9 9 9 9 10 10 10 11 12 13 13 13 13 12 12 11 11 11 11 11 11 10 10 10 10 10 11
11 10 9 9 9 9 9 9 9 8 8 8 9 9 9 9 10 10 10 9 10 11 11 11 10 10 10 10 10 11 12 12 13 13 12 12 12 12 11 11 11 11 11 11 11 11 11 11 11
11 10 10 10 10 10 10 10 10 10 9 9 9 9 10 10 10 10 11 11 11 11 12 12 11 11 11 12 11 11 12 13 13 13 13 13 13 13 12 12 12 12 12 12 13 13 12 13 13
11 11 10 10 10 11 11 10 10 10 10 9 9 9 10 10 11 11 11 11 12 12 12 13 12 12 12 12 11 12 13 13 13 13 13 12 13 13 13 13 13 13 13 13 13 13 13 14 14
11 11 12 12 11 11 11 11 10 10 10 9 9 9 10 11 11 11 11 12 13 13 13 13 13 13 13 13 13 13 12 12 13 13 13 13 14 13 14 14 15 15 15 15 14 15 15 15 16
11 12 12 12 12 12 13 12 10 10 9 9 9 9 9 10 11 11 11 12 13 13 14 14 14 14 13 13 13 14 13 14 14 14 14 14 14 15 15 15 16 16 16 16 16 17 17 17 17
11 11 12 12 12 12 12 12 10 9 9 9 10 10 10 10 10 11 12 13 13 13 14 14 14 14 14 13 14 14 15 15 15 15 14 14 14 15 16 16 17 17 17 17 17 18 18 18 19
12 11 12 12 12 10 11 11 9 8 8 9 9 10 10 10 11 11 12 13 13 13 14 14 14 15 15 14 14 15 15 15 15 16 16 16 16 15 16 16 17 17 18 18 18 18 19 19 20
13 12 12 12 11 10 10 11 10 10 10 10 10 10 10 11 11 12 12 12 13 14 14 14 14 15 15 16 16 16 16 15 16 17 17 17 17 18 17 17 18 18 19 19 19 19 19 20 20
13 12 12 13 13 12 12 12 12 12 11 11 11 11 11 11 11 12 12 13 13 13 14 14 14 15 16 16 16 16 16 16 17 17 17 18 18 19 18 18 18 19 19 20 20 20 20 20 20
13 13 15 15 15 14 13 13 13 13 12 12 13 12 12 12 12 13 13 13 14 15 15 15 16 16 17 17 17 18 18 18 18 19 19 18 19 20 20 19 19 19 20 20 20 20 21 21 21
14 15 15 16 16 16 15 14 14 14 13 14 14 14 15 14 14 14 15 14 14 15 15 16 17 17 17 18 18 19 19 20 20 20 20 20 20 20 21 21 20 20 20 21 21 22 22 22 22
16 16 16 17 18 18 18 17 16 16 16 16 16 16 17 17 16 16 16 15 15 15 16 17 17 18 18 19 19 20 20 21 21 21 21 21 21 21 22 22 22 21 21 22 23 23 23 23 24
Wind_Direction
201 192 190 195 196 194 198 213 217 213 220 216 219 227 224 235 243 243 245 250 247 246 251 258 268 266 256 257 261 262 268 274 280 275 277 273 268 264 255 254 257 260 260 259 257 254 255 254 253
208 198 195 199 201 205 207 209 224 220 220 214 216 226 233 234 240 249 252 256 254 250 254 259 264 266 261 260 265 264 264 269 276 274 272 269 268 268 261 261 262 263 264 264 265 258 253 253 255
218 212 213 211 215 220 225 207 205 215 223 221 226 237 241 246 249 251 253 257 256 256 256 258 259 260 260 259 262 263 263 270 276 273 268 266 266 268 266 264 266 264 266 267 266 260 255 253 254
231 232 228 229 229 228 230 222 206 216 227 227 234 251 255 256 256 253 253 255 256 257 260 260 258 259 255 255 259 263 266 276 278 277 271 268 265 263 263 267 265 262 266 269 268 261 258 257 256
239 238 241 242 243 247 249 240 232 239 235 235 244 253 260 261 260 261 261 257 255 256 259 260 258 260 257 256 257 262 269 276 278 279 276 272 268 265 263 262 262 263 264 265 266 263 259 259 256
243 244 244 244 249 250 249 247 248 246 242 244 245 251 255 259 261 265 269 264 259 258 259 263 263 260 257 256 259 267 273 275 275 276 275 273 272 272 267 263 264 266 263 263 264 264 263 263 260
242 245 245 245 248 251 249 246 256 245 240 249 255 257 257 259 259 262 263 264 265 262 262 262 262 258 257 260 261 265 271 275 276 275 274 275 278 280 276 270 268 268 268 266 266 266 267 265 263
241 246 248 248 249 254 251 250 252 249 246 249 257 265 264 266 261 258 259 260 265 266 266 263 261 258 260 263 265 270 273 276 279 277 276 276 278 281 278 277 274 272 272 271 269 270 268 264 263
244 247 249 250 248 248 250 252 258 254 256 261 264 263 263 266 260 260 254 261 269 272 272 273 261 257 260 263 266 270 276 278 279 279 277 277 278 280 280 279 277 277 275 274 269 271 266 262 261
244 245 245 246 243 241 248 251 254 259 262 262 266 263 260 259 259 263 261 262 268 271 266 267 264 262 260 266 269 273 279 281 279 279 279 281 281 281 281 281 280 281 278 277 275 273 271 264 262
238 236 236 237 235 241 243 248 251 255 259 263 264 259 256 254 256 261 274 269 265 268 270 270 267 268 270 272 274 276 279 281 281 281 282 284 284 285 285 284 283 282 280 280 280 276 271 267 263
232 235 237 238 239 245 245 253 252 254 254 253 254 257 262 259 257 258 262 264 265 262 266 269 269 270 272 273 277 280 282 283 283 284 285 285 285 286 286 286 285 282 279 279 280 276 276 274 268
236 235 237 240 241 241 245 248 252 254 249 251 253 256 261 263 264 261 263 263 262 261 263 268 268 267 271 274 280 280 283 286 286 284 283 282 283 284 284 285 285 283 279 278 276 272 275 274 268
241 240 239 236 241 245 249 253 254 253 252 252 253 254 257 261 263 264 266 268 263 265 265 265 269 270 273 279 281 284 286 287 287 286 286 286 286 286 286 286 285 284 280 277 273 271 274 271 270
236 231 231 230 240 244 248 253 259 258 255 252 251 255 259 261 258 258 260 259 261 264 266 266 267 272 276 281 282 285 287 288 290 290 289 290 291 289 286 285 285 284 280 276 272 272 272 271 271
244 236 231 230 236 244 248 253 260 265 261 255 253 252 258 263 259 258 260 259 262 262 261 265 269 273 278 283 284 284 286 288 290 292 292 293 293 290 286 284 284 284 282 280 275 275 273 271 270
243 244 246 246 242 246 250 256 257 260 260 258 261 258 259 262 261 262 262 261 262 264 263 266 270 275 278 280 284 287 288 288 289 290 291 290 290 289 287 286 285 285 283 282 276 275 269 267 266
245 247 251 253 253 250 252 258 259 258 257 261 264 263 260 259 262 263 262 263 265 267 268 268 270 273 277 282 285 287 288 290 291 291 290 289 288 288 288 286 284 286 285 282 277 275 272 269 266
245 249 253 253 255 254 255 258 257 257 257 260 265 268 268 265 265 264 263 261 264 266 268 268 270 272 274 278 282 286 288 290 293 295 293 289 286 284 285 285 285 285 284 281 278 277 275 271 267
247 248 251 254 256 256 257 257 257 257 259 262 264 266 270 269 266 264 264 263 262 264 266 267 271 273 276 277 277 285 287 287 291 295 293 289 284 282 282 284 285 285 283 279 276 277 275 272 268
251 251 253 256 259 261 262 259 259 261 263 266 266 266 270 273 271 269 266 267 267 266 266 267 272 274 276 279 282 285 285 285 287 290 289 287 284 282 282 285 284 284 284 280 277 276 276 274 270
254 256 258 262 267 267 264 263 266 266 267 268 271 269 270 272 271 269 267 267 269 267 266 268 271 274 277 280 281 284 287 287 287 288 288 289 288 285 284 283 283 283 282 282 279 276 276 277 274
253 257 261 266 268 267 268 270 266 264 264 269 270 271 273 274 273 274 271 269 268 268 268 269 271 272 274 275 277 280 283 287 290 293 290 289 289 285 283 283 283 282 281 281 280 277 276 276 274
250 253 259 263 265 266 270 270 265 263 265 268 271 275 276 277 275 276 277 277 272 271 270 269 268 269 270 272 276 281 284 287 290 294 291 288 287 285 282 283 285 284 281 280 278 277 275 275 274
249 252 257 258 261 267 270 272 272 272 269 270 273 278 280 279 274 272 274 275 275 274 272 267 266 268 270 273 277 282 283 284 287 289 290 288 288 290 286 284 284 283 282 280 279 278 276 276 275
251 254 256 260 264 265 269 272 276 276 275 276 276 282 283 283 279 275 274 275 274 273 270 267 267 268 271 274 277 279 279 281 286 288 289 288 288 289 289 285 284 283 281 280 280 280 277 275 275
253 253 258 263 265 267 269 274 276 276 277 279 279 281 282 281 280 278 276 278 278 272 269 270 271 270 272 275 276 276 277 280 285 286 288 288 288 288 289 288 287 285 283 282 282 280 277 275 275
252 256 258 261 265 265 267 272 276 275 278 280 282 283 283 281 280 281 280 276 273 271 272 273 273 274 275 276 276 276 278 279 282 285 286 287 286 286 287 288 288 288 286 284 284 282 278 276 275
252 255 258 261 264 268 272 273 275 275 278 282 283 283 283 281 279 279 280 278 272 273 273 274 274 275 276 276 277 279 280 281 283 284 285 286 286 286 285 286 287 287 286 284 282 282 279 277 276
255 257 259 264 268 270 271 271 272 275 277 280 282 282 282 281 279 277 277 277 275 275 273 273 274 276 277 277 278 279 281 283 283 283 283 284 285 285 284 285 286 286 285 285 283 282 281 278 277
Height
5863 5863 5864 5865 5866 5866 5865 5866 5865 5866 5867 5867 5868 5868 5869 5869 5871 5872 5871 5870 5870 5871 5871 5871 5871 5871 5871 5871 5871 5871 5871 5871 5871 5871 5871 5871 5871 5871 5871 5871 5871 5870 5870 5870 5870 5870 5870 5870 5870
5863 5863 5864 5865 5864 5864 5865 5865 5865 5865 5866 5866 5866 5867 5868 5868 5869 5869 5868 5869 5869 5870 5870 5870 5870 5870 5870 5870 5870 5870 5870 5870 5870 5870 5870 5870 5870 5870 5869 5869 5869 5869 5869 5869 5868 5868 5869 5869 5869
5862 5863 5864 5864 5864 5864 5865 5864 5864 5864 5865 5865 5866 5866 5867 5867 5867 5867 5867 5868 5868 5868 5868 5868 5868 5868 5869 5869 5869 5869 5869 5869 5869 5869 5869 5868 5868 5868 5868 5868 5867 5867 5867 5867 5867 5867 5867 5867 5867
5862 5863 5863 5863 5863 5863 5864 5864 5864 5864 5864 5865 5865 5865 5866 5866 5866 5866 5866 5866 5866 5867 5867 5867 5867 5867 5867 5868 5868 5868 5868 5868 5868 5868 5867 5867 5867 5867 5867 5866 5866 5865 5865 5865 5865 5865 5865 5865 5865
5861 5861 5862 5862 5862 5862 5862 5863 5863 5863 5864 5864 5864 5864 5865 5865 5865 5864 5864 5865 5865 5865 5865 5866 5866 5866 5866 5866 5866 5866 5867 5867 5867 5866 5866 5866 5865 5865 5865 5864 5864 5864 5863 5863 5863 5863 5863 5863 5863
5860 5860 5861 5861 5861 5861 5861 5862 5862 5863 5863 5863 5863 5863 5863 5863 5863 5863 5863 5863 5863 5863 5864 5864 5864 5864 5864 5865 5865 5865 5865 5865 5865 5865 5864 5864 5864 5863 5863 5862 5862 5862 5861 5861 5861 5861 5861 5860 5861
5859 5859 5859 5860 5860 5860 5860 5860 5861 5861 5861 5862 5862 5862 5861 5862 5862 5862 5862 5861 5862 5862 5862 5862 5863 5863 5863 5863 5863 5863 5863 5863 5863 5863 5863 5862 5862 5861 5861 5860 5860 5859 5859 5859 5858 5858 5858 5858 5858
5856 5858 5857 5858 5858 5858 5859 5859 5859 5860 5860 5861 5861 5860 5860 5861 5860 5860 5860 5860 5860 5861 5861 5861 5861 5861 5862 5862 5862 5862 5862 5862 5862 5861 5861 5861 5860 5860 5859 5858 5858 5857 5857 5856 5856 5856 5856 5856 5855
5855 5856 5855 5856 5856 5857 5857 5857 5858 5858 5858 5859 5859 5859 5859 5859 5859 5859 5859 5859 5859 5859 5859 5859 5859 5860 5860 5860 5860 5860 5860 5860 5860 5859 5859 5859 5858 5858 5857 5857 5855 5855 5855 5854 5854 5853 5853 5853 5853
5853 5853 5854 5855 5855 5855 5855 5856 5856 5856 5857 5857 5858 5857 5858 5858 5857 5857 5857 5858 5858 5858 5858 5858 5858 5858 5858 5858 5858 5858 5858 5858 5858 5857 5857 5856 5856 5855 5855 5855 5854 5853 5852 5852 5851 5851 5851 5850 5850
5850 5851 5852 5852 5853 5853 5854 5854 5855 5855 5856 5856 5856 5856 5856 5856 5856 5856 5856 5856 5856 5857 5857 5857 5857 5857 5857 5857 5857 5857 5857 5856 5856 5855 5855 5854 5853 5853 5852 5852 5851 5851 5850 5849 5849 5848 5848 5847 5847
5849 5849 5850 5850 5851 5852 5852 5852 5853 5854 5854 5854 5854 5854 5854 5855 5855 5855 5855 5855 5855 5855 5855 5855 5855 5855 5855 5855 5855 5855 5855 5854 5854 5853 5853 5852 5851 5850 5849 5849 5848 5848 5847 5846 5846 5845 5845 5845 5844
5848 5848 5848 5849 5849 5850 5850 5851 5851 5851 5852 5852 5852 5853 5853 5853 5853 5853 5853 5853 5853 5853 5854 5854 5854 5853 5853 5853 5853 5853 5853 5852 5852 5851 5850 5849 5848 5848 5847 5846 5845 5845 5844 5843 5843 5842 5842 5842 5842
5846 5846 5847 5848 5848 5848 5849 5849 5849 5850 5850 5850 5850 5851 5851 5851 5851 5851 5851 5851 5851 5852 5852 5852 5852 5852 5851 5851 5851 5851 5850 5850 5849 5848 5847 5847 5845 5844 5843 5842 5842 5841 5840 5840 5839 5839 5839 5839 5839
5845 5846 5846 5846 5846 5847 5847 5848 5848 5848 5848 5848 5848 5849 5849 5849 5849 5849 5849 5849 5850 5850 5849 5850 5849 5849 5849 5849 5849 5848 5848 5847 5846 5845 5844 5843 5842 5841 5840 5839 5838 5838 5837 5837 5836 5836 5836 5835 5835
5844 5845 5845 5845 5845 5845 5847 5846 5846 5846 5846 5846 5846 5847 5847 5847 5847 5847 5847 5848 5847 5847 5847 5847 5847 5847 5847 5846 5846 5845 5845 5844 5843 5842 5841 5840 5839 5837 5836 5836 5835 5835 5834 5834 5834 5833 5833 5832 5832
5842 5843 5843 5843 5843 5843 5844 5844 5844 5844 5844 5844 5844 5844 5844 5845 5845 5845 5845 5845 5845 5845 5845 5845 5845 5844 5844 5844 5843 5842 5842 5841 5840 5839 5838 5837 5835 5834 5834 5833 5832 5832 5831 5831 5830 5830 5830 5830 5829
5840 5840 5841 5841 5841 5841 5841 5842 5842 5842 5842 5842 5842 5842 5842 5842 5842 5842 5842 5843 5843 5842 5842 5842 5842 5842 5841 5840 5840 5839 5839 5838 5837 5836 5834 5833 5832 5831 5831 5830 5830 5829 5828 5828 5827 5827 5827 5827 5826
5838 5838 5838 5839 5839 5839 5839 5839 5839 5839 5839 5839 5839 5839 5839 5840 5840 5840 5840 5840 5840 5840 5840 5839 5839 5839 5838 5838 5837 5836 5836 5835 5834 5832 5831 5830 5829 5828 5828 5827 5827 5826 5825 5825 5824 5824 5824 5823 5823
5835 5836 5836 5836 5836 5836 5836 5836 5836 5836 5836 5836 5837 5836 5836 5836 5836 5836 5836 5837 5837 5837 5836 5836 5836 5836 5835 5835 5834 5833 5833 5831 5830 5829 5828 5826 5826 5825 5824 5824 5823 5823 5822 5822 5821 5821 5820 5820 5820
5832 5833 5833 5833 5833 5833 5833 5834 5834 5833 5833 5833 5833 5833 5833 5833 5833 5833 5833 5833 5833 5833 5833 5833 5832 5832 5832 5831 5831 5830 5829 5828 5827 5825 5824 5823 5822 5822 5821 5820 5820 5819 5819 5818 5817 5817 5817 5816 5816
5829 5829 5830 5830 5830 5830 5831 5830 5831 5830 5830 5830 5830 5830 5830 5829 5829 5829 5829 5829 5829 5829 5829 5829 5829 5829 5828 5828 5827 5827 5826 5825 5824 5822 5821 5820 5819 5818 5817 5816 5816 5815 5814 5814 5813 5813 5813 5812 5812
5826 5826 5826 5826 5826 5827 5826 5827 5828 5826 5827 5827 5827 5826 5826 5826 5825 5825 5825 5825 5825 5825 5825 5825 5825 5825 5824 5824 5824 5823 5822 5821 5820 5819 5817 5816 5815 5814 5813 5812 5811 5811 5810 5809 5808 5808 5808 5807 5807
5822 5823 5823 5823 5823 5824 5823 5823 5824 5823 5823 5823 5823 5823 5823 5822 5822 5821 5821 5821 5821 5821 5821 5821 5821 5821 5821 5820 5820 5819 5818 5817 5816 5815 5813 5812 5811 5810 5809 5808 5807 5806 5805 5804 5803 5803 5802 5802 5802
5819 5820 5820 5819 5819 5820 5819 5819 5821 5820 5820 5820 5820 5819 5819 5819 5818 5818 5818 5817 5817 5816 5817 5817 5817 5817 5817 5816 5816 5815 5814 5813 5812 5811 5809 5808 5807 5806 5804 5803 5802 5801 5800 5799 5798 5798 5797 5796 5796
5815 5816 5817 5817 5816 5817 5816 5815 5817 5816 5816 5816 5816 5816 5815 5815 5814 5814 5814 5813 5813 5812 5812 5812 5813 5812 5812 5812 5811 5811 5810 5809 5808 5807 5805 5804 5802 5801 5800 5799 5798 5796 5795 5794 5793 5792 5791 5790 5790
5812 5812 5813 5813 5812 5812 5812 5813 5813 5812 5812 5812 5812 5811 5811 5811 5810 5810 5810 5809 5809 5808 5808 5808 5808 5808 5808 5807 5807 5806 5806 5805 5804 5802 5800 5799 5798 5796 5795 5794 5792 5791 5790 5788 5787 5786 5785 5784 5784
5808 5808 5808 5808 5808 5808 5808 5808 5809 5808 5808 5808 5807 5807 5807 5807 5806 5806 5805 5805 5805 5804 5804 5804 5804 5803 5803 5802 5802 5801 5800 5800 5799 5797 5796 5794 5792 5791 5790 5788 5787 5785 5784 5783 5781 5780 5779 5778 5777
5804 5804 5804 5804 5803 5803 5803 5806 5804 5803 5803 5803 5803 5802 5802 5801 5801 5801 5800 5800 5800 5799 5799 5799 5799 5799 5798 5797 5797 5796 5795 5794 5793 5792 5790 5788 5787 5785 5784 5783 5781 5779 5778 5776 5775 5774 5773 5771 5771
5799 5799 5799 5800 5799 5798 5798 5802 5800 5799 5799 5798 5798 5797 5796 5796 5796 5796 5795 5795 5795 5795 5794 5794 5794 5793 5793 5792 5791 5790 5789 5788 5787 5785 5784 5782 5781 5779 5778 5776 5775 5773 5772 5770 5768 5767 5766 5765 5764